Terminal Aerodrome Forecast
Issued by NWS

Home | Current Version | Previous Version | Text Only | Print | Product List | Glossary On
Versions: 1 2 3 4 5 6 7 8 9 10 11 12 13 14 15 16 17 18 19 20 21 22 23 24 25 26 27 28 29 30 31 32 33 34 35 36 37 38 39 40 41 42 43 44 45 46 47 48 49 50
000
FTUS41 KCTP 251607 AAB
TAFBFD
TAF AMD
KBFD 251607Z 2516/2612 26015G20KT 4SM -SHRA BR BKN008 OVC015
     FM251800 27015G20KT P6SM VCSH OVC015
     FM252200 28015G25KT P6SM -SHSN OVC020
     FM261000 29010G20KT P6SM -SHSN OVC025=

USA.gov is the U.S. government's official web portal to all federal, state and local government web resources and services.